sat.trackr.live / text

‹ back to catalog

STARLINK-37034

NORAD 68171 · 2026-050E

PAYLOAD ACTIVE UNKNOWN

§ Identity

Operator
Country
US
Launch date
2026-03-14
Launch site
AFETR
Launch vehicle
Mass (kg)
RCS (m²)

Purposes: comms

External: N2YO · Heavens-Above · Gunter

§ Orbital elements

Epoch: 2026-09-19T22:54:43.254720Z

Period
93.85 min
Inclination
53.1597°
Eccentricity
0.0000920
Mean motion
15.34412250 rev/d
Perigee alt
462.0 km
Apogee alt
463.3 km
Semi-major
6,840.8 km
B*
3.6328e-4
RAAN
80.3200°
Arg perigee
94.8638°
Mean anomaly
265.2470°
Rev number
3,048

§ Raw data

STARLINK-370341 68171U 26050E   26262.95466730  .00011922  00000+0  36328-3 0  99932 68171  53.1597  80.3200 0000920  94.8638 265.2470 15.34412250 30485

JSON: /api/v1/satellites/68171 · /tle

For live sub-satellite position, see the globe view (requires WebGL).

§ Visibility from observer

Set your observer location to see the next 7 days of passes ≥ 10°. The values pass through the URL so the page stays shareable.

No JS? Fill the form by hand. The geolocation button needs JavaScript.